Dewpoint
55 53 52 51 49 50 50 43 35 43 43 28 27 21 24 29 24 27 33 31 30 27 31 31 29 28 30 36 31 32 34 28 24 25 34 33 30 28 32 20 23 21 16 20
54 53 52 51 49 51 44 38 36 42 37 22 21 23 24 24 25 24 26 25 29 29 31 30 27 31 33 38 35 34 33 30 23 22 31 32 31 32 33 31 26 23 15 20
54 52 51 50 50 50 42 34 27 32 33 26 24 25 22 23 26 25 25 27 30 29 31 32 29 28 35 38 39 39 39 33 25 16 21 28 27 31 33 26 20 25 23 27
53 52 51 50 50 51 38 36 29 29 24 24 25 25 23 23 22 24 26 28 29 29 28 28 29 31 33 34 37 35 37 30 32 31 31 31 29 29 32 25 31 30 30 29
53 52 50 50 50 51 38 32 27 25 23 23 22 25 21 23 24 23 23 25 27 29 28 28 29 30 33 32 34 33 34 29 29 26 28 31 30 31 32 32 30 33 33 30
53 51 50 50 50 44 36 34 33 25 25 21 21 21 23 24 25 24 26 26 25 28 29 29 29 30 32 32 33 34 33 30 28 23 26 26 23 31 31 31 31 30 28 29
53 51 50 50 49 43 34 33 32 23 20 21 21 23 24 24 25 24 26 26 25 29 33 34 34 33 34 33 33 33 31 28 27 21 21 17 23 26 31 30 29 30 29 30
52 50 50 49 49 43 35 35 31 25 20 22 23 24 24 25 25 24 25 27 28 32 34 31 31 30 30 31 33 32 34 29 26 21 20 21 27 29 28 27 30 32 32 33
51 50 49 49 49 45 37 37 37 29 23 21 24 24 24 23 22 24 27 30 32 34 34 31 24 22 25 25 27 31 31 30 26 24 19 17 26 29 30 29 29 36 34 31
50 49 48 49 49 46 37 37 39 31 26 28 25 23 24 25 25 24 26 27 29 32 30 26 21 23 27 23 23 25 25 26 23 23 23 22 28 30 31 21 26 37 33 32
49 48 48 49 49 44 38 37 38 32 29 29 30 30 25 27 26 24 25 29 28 27 27 27 26 25 26 24 25 23 23 21 22 23 21 18 31 31 29 31 34 38 34 34
47 48 49 48 46 44 40 35 37 36 32 30 32 32 32 30 29 27 28 27 28 30 27 27 28 26 28 25 22 29 23 25 25 24 24 27 31 29 33 31 31 38 36 36
47 48 48 47 45 43 39 36 37 34 31 29 29 29 31 32 32 32 28 29 30 30 31 31 30 25 29 24 28 27 30 30 25 26 31 32 33 35 36 37 38 39 40 39
48 47 46 47 46 44 41 37 39 33 31 26 27 31 30 32 33 32 31 30 31 30 29 29 30 27 30 27 28 27 29 30 29 29 30 31 31 33 37 37 38 38 39 41
48 48 47 46 45 44 40 39 38 37 29 26 27 29 29 31 33 32 31 30 28 28 26 27 26 29 28 30 31 26 29 28 29 29 32 32 34 37 37 37 37 38 38 38
49 48 46 45 44 41 34 27 34 38 34 28 24 29 27 29 31 31 29 30 29 28 27 26 27 27 26 24 23 29 30 31 32 30 33 33 34 35 35 36 37 37 38 38
48 47 46 44 43 40 35 28 33 38 35 28 24 24 26 31 31 31 31 31 29 28 27 27 27 27 28 26 23 27 30 31 32 32 33 32 33 32 34 35 36 37 37 38
48 46 44 43 41 39 34 37 39 36 33 30 22 22 25 30 29 29 33 30 31 28 28 27 26 27 27 24 26 29 30 30 31 31 32 32 34 35 36 36 36 35 35 35
46 45 42 39 38 33 33 39 39 37 31 27 22 17 16 29 32 33 32 33 24 31 26 27 28 25 24 25 25 30 30 30 30 32 32 32 32 33 35 36 34 34 34 35
44 40 36 33 37 40 39 33 28 29 30 31 27 27 23 30 31 30 29 32 28 23 26 31 27 25 27 28 29 31 31 32 34 32 30 31 31 31 34 36 35 34 34 32
39 35 34 39 41 36 33 25 23 26 23 28 28 26 27 31 27 28 29 27 30 18 23 25 21 23 26 30 30 30 31 32 34 35 34 33 34 34 35 35 35 35 34 34
38 37 39 38 34 32 31 20 25 24 21 27 26 27 27 28 30 28 29 24 27 15 30 26 19 23 28 29 28 29 30 32 33 32 32 32 33 34 35 35 34 34 33 32
39 36 33 32 31 28 25 17 19 21 26 27 27 26 28 29 29 27 27 23 18 30 25 19 21 24 28 28 29 30 32 33 33 33 33 32 31 31 32 32 32 31 29 26
35 31 27 28 25 25 23 24 26 27 29 29 27 26 26 28 23 26 18 23 30 23 17 16 20 25 27 28 30 30 31 32 32 32 32 31 30 30 28 24 22 22 24 23
33 33 27 25 26 28 30 27 30 31 31 29 27 26 26 24 22 23 22 23 20 18 15 19 21 23 26 27 30 31 32 31 31 31 31 31 31 30 29 29 27 24 23 25
32 29 22 26 25 27 29 30 31 32 30 29 27 23 19 21 21 17 18 16 12 16 18 21 24 26 27 29 30 28 27 31 31 32 32 32 31 30 28 29 28 28 28 28
29 23 28 27 27 27 30 31 31 31 28 23 22 16 16 21 14 14 19 17 18 19 29 28 24 28 29 27 28 28 27 27 27 29 30 31 31 31 29 24 23 26 29 28
Lifted_Index
3 5 8 10 11 11 11 11 11 13 13 12 12 13 14 16 16 15 14 12 9 6 4 3 3 2 2 2 1 1 1 1 1 1 2 2 1 1 1 1 1 1 2 2
4 6 8 10 11 11 11 11 11 13 13 12 12 13 14 15 15 14 13 12 9 6 4 4 3 3 2 2 2 2 2 2 1 1 2 2 1 1 1 1 1 1 2 2
6 7 9 11 11 12 12 11 11 12 13 13 12 13 13 14 14 14 13 12 10 7 5 4 3 3 3 3 2 2 2 2 2 1 2 2 1 1 1 1 1 1 1 1
6 8 10 11 12 12 12 11 11 12 12 12 13 13 13 13 13 13 13 12 10 7 5 4 4 3 3 3 3 3 2 2 2 2 2 1 1 1 1 1 1 1 1 1
7 9 11 11 12 12 13 12 12 12 12 12 12 13 12 12 13 13 12 12 10 8 5 4 4 4 4 3 3 3 3 2 2 2 2 2 1 1 1 1 1 1 1 1
7 9 11 12 12 13 13 14 13 13 12 12 12 12 12 12 12 12 12 12 10 9 6 5 4 4 4 3 3 3 3 2 2 2 2 1 1 1 1 1 1 1 1 1
8 10 11 12 12 13 14 14 14 13 12 12 12 12 13 13 13 12 12 12 11 10 8 6 4 4 4 3 3 3 2 2 2 2 1 1 1 2 2 1 1 1 1 1
9 10 11 12 13 14 15 15 14 13 12 12 13 13 13 13 13 12 12 12 12 11 9 6 5 4 3 3 3 3 3 2 2 1 1 1 2 2 2 2 1 2 2 2
10 11 12 12 13 14 15 15 15 14 13 13 13 13 13 13 13 12 12 12 12 11 9 7 6 4 3 3 2 3 3 3 2 2 1 1 2 2 2 2 2 2 2 2
11 12 12 12 13 14 16 15 15 14 14 14 14 14 13 13 13 12 12 11 11 10 9 9 7 5 4 3 2 2 2 2 2 2 2 2 2 2 2 2 1 1 2 2
11 12 13 13 13 15 16 16 15 15 14 15 15 15 14 14 13 12 12 11 11 10 10 9 9 7 6 4 3 3 2 2 2 2 2 2 2 2 2 2 1 1 2 2
11 12 13 13 14 15 16 15 15 15 15 15 15 16 15 15 14 13 12 12 11 11 10 10 9 9 8 6 5 3 2 2 1 1 2 2 2 2 2 2 2 1 1 2
11 12 13 13 14 15 16 16 15 15 15 15 15 16 16 16 16 15 14 13 13 12 11 10 10 10 9 8 6 5 3 2 1 1 1 1 1 1 2 2 2 1 1 1
11 12 13 14 14 15 16 16 16 15 15 14 14 15 16 16 17 16 15 15 14 13 12 11 11 10 10 9 8 6 4 3 2 1 1 1 1 1 1 2 1 1 1 1
12 13 13 14 15 16 16 16 16 15 14 13 13 15 16 16 16 16 15 15 14 13 12 11 11 11 10 10 9 7 6 4 2 1 1 1 1 1 1 2 1 1 1 1
13 13 13 14 15 16 16 15 15 15 15 13 13 14 15 15 15 14 14 14 14 13 12 11 11 11 10 9 9 8 7 5 4 3 2 1 1 2 2 2 2 1 1 1
13 13 13 14 15 16 15 15 15 16 15 13 12 12 14 15 14 14 13 13 13 12 12 11 11 10 10 9 9 8 7 6 5 4 3 3 3 3 3 3 3 2 1 1
13 13 14 15 16 16 15 16 16 16 15 13 11 11 13 14 14 13 13 12 12 12 12 11 10 10 9 9 8 8 7 7 6 6 5 4 4 3 3 3 3 2 2 2
14 14 15 15 16 16 16 16 16 16 15 13 11 10 11 13 13 12 12 12 11 11 11 11 10 9 9 8 8 8 7 7 6 6 6 5 4 4 3 3 3 3 3 2
14 14 14 15 16 16 15 15 15 15 14 13 12 11 12 12 13 12 12 11 10 9 10 10 9 8 8 8 8 8 7 7 6 6 6 5 4 4 4 4 4 3 3 3
13 13 14 15 15 14 13 13 13 12 12 12 13 12 12 13 12 12 12 11 9 8 9 9 8 8 8 8 8 8 8 7 7 7 6 6 5 5 5 4 4 4 4 4
13 13 13 14 13 11 9 8 9 9 9 11 12 12 13 13 13 12 11 10 9 8 8 8 7 8 8 8 8 8 8 8 7 7 7 6 6 6 5 5 5 5 5 5
12 11 11 10 9 7 5 5 5 6 8 10 11 12 13 13 13 12 11 9 9 9 7 6 7 8 8 8 8 8 8 8 8 7 7 6 6 6 6 5 5 5 5 5
10 9 7 7 6 5 5 4 5 7 9 11 12 12 12 13 12 11 10 9 9 8 6 6 8 9 8 8 8 8 8 8 8 8 7 6 6 6 6 6 5 5 5 5
8 7 6 5 6 6 6 6 7 9 11 12 12 12 12 12 12 11 9 8 7 7 6 7 8 9 8 8 8 8 8 9 9 9 8 7 6 6 6 6 5 5 5 5
8 7 6 6 6 6 7 7 9 11 12 12 12 11 11 11 11 10 8 8 7 8 8 9 9 9 8 8 8 9 9 9 10 9 9 8 7 6 6 6 6 6 5 5
8 7 7 7 6 7 7 8 9 11 11 10 10 10 10 11 10 9 8 8 8 9 9 9 9 9 9 8 9 9 10 10 10 9 9 9 8 7 6 6 6 6 6 5